This demonstration page uses our WeatherBlox Daily Observations layout. Learn more.

Hourly Observations for October 30, 2019

Temp ( °F °C ) Dew Point ( °F °C ) Humidity (%) Winds ( mph kmh ) Pressure ( in mb ) Visibility ( mi km ) Precip ( " mm )
12:15 am 00:15 Cloudy with Light Snow 25 -4.1 21 -5.9 87 87 N 17 28 30.49 1032 4 6.43736 0 0
12:35 am 00:35 Cloudy with Light Snow 24 -4.5 22 -5.5 93 93 N 14 22 30.5 1033 3 4.82802 0 0
12:55 am 00:55 Cloudy with Light Snow 24 -4.6 22 -5.5 94 94 N 17 28 30.5 1033 3 4.82802 0 0
1:15 am 01:15 Cloudy with Light Snow 23 -5 21 -6 93 93 N 16 26 30.5 1033 5 8.0467 0 0
1:35 am 01:35 Cloudy 23 -5.1 21 -6 93 93 N 13 20 30.5 1033 10 16.0934 0 0
1:55 am 01:55 Cloudy with Light Snow 23 -5.2 21 -6.2 93 93 N 8 13 30.52 1033 4 6.43736 0 0
2:15 am 02:15 Cloudy with Light Snow 22 -5.5 20 -6.4 93 93 N 13 20 30.51 1033 2.5 4.02335 0 0
2:35 am 02:35 Cloudy with Light Snow 22 -5.7 20 -6.6 93 93 N 15 24 30.51 1033 2 3.21868 0 0
2:55 am 02:55 Cloudy with Light Snow 22 -5.8 20 -6.5 95 95 N 12 19 30.52 1034 1.75 2.816345 0 0
3:15 am 03:15 Cloudy with Light Snow 21 -5.9 20 -6.5 96 96 N 12 19 30.52 1034 2.5 4.02335 0 0
3:35 am 03:35 Cloudy with Light Snow 21 -6 20 -6.6 96 96 N 10 17 30.53 1034 2.5 4.02335 0 0
3:55 am 03:55 Cloudy with Light Snow 21 -6 20 -6.8 94 94 N 14 22 30.52 1033 2.5 4.02335 0 0
4:15 am 04:15 Cloudy with Light Snow 21 -6.1 20 -6.9 94 94 N 12 19 30.51 1033 4 6.43736 0 0
4:35 am 04:35 Cloudy with Light Snow 21 -6.2 19 -7 94 94 N 12 19 30.51 1033 3 4.82802 0 0
4:55 am 04:55 Cloudy with Light Snow 21 -6.3 19 -7.1 94 94 N 14 22 30.51 1033 2.5 4.02335 0 0
5:15 am 05:15 Cloudy with Light Snow 21 -6.3 19 -7.1 94 94 N 12 19 30.5 1033 4 6.43736 0 0
5:35 am 05:35 Cloudy with Light Snow 20 -6.4 19 -7.2 94 94 N 13 20 30.51 1033 4 6.43736 0 0
5:55 am 05:55 Cloudy with Light Snow 20 -6.4 19 -7.2 94 94 N 10 17 30.52 1034 4 6.43736 0 0
6:15 am 06:15 Cloudy with Light Snow 20 -6.5 19 -7.3 94 94 N 14 22 30.52 1034 3 4.82802 0 0
6:35 am 06:35 Cloudy with Light Snow 20 -6.5 19 -7.2 95 95 N 13 20 30.53 1034 3 4.82802 0 0
6:55 am 06:55 Cloudy with Light Snow 20 -6.5 19 -7.3 94 94 N 15 24 30.52 1034 4 6.43736 0 0
7:15 am 07:15 Cloudy with Light Snow 20 -6.5 19 -7.3 94 94 N 10 17 30.52 1034 3 4.82802 0 0
7:35 am 07:35 Cloudy with Light Snow 20 -6.5 19 -7.3 94 94 N 12 19 30.52 1034 3 4.82802 0 0
7:55 am 07:55 Cloudy with Light Snow 20 -6.6 19 -7.5 93 93 N 9 15 30.53 1034 4 6.43736 0 0
8:15 am 08:15 Cloudy with Light Snow 20 -6.6 19 -7.5 93 93 N 12 19 30.53 1034 4 6.43736 0 0
8:35 am 08:35 Cloudy with Light Snow 20 -6.6 19 -7.5 93 93 N 13 20 30.53 1034 2.5 4.02335 0 0
8:55 am 08:55 Cloudy with Light Snow 20 -6.5 19 -7.2 95 95 N 10 17 30.54 1034 3 4.82802 0 0
9:15 am 09:15 Cloudy with Light Snow 21 -6.3 19 -7.3 93 93 N 10 17 30.54 1034 2.5 4.02335 0.01 0.254
9:35 am 09:35 Cloudy with Light Snow 21 -6.2 19 -7.3 92 92 N 10 17 30.54 1034 4 6.43736 0.01 0.254
9:55 am 09:55 Cloudy with Light Snow 21 -6.3 19 -7.5 91 91 N 12 19 30.54 1034 2.5 4.02335 0.01 0.254
10:15 am 10:15 Cloudy with Light Snow 21 -6.2 19 -7.5 91 91 N 10 17 30.54 1034 4 6.43736 0 0
10:35 am 10:35 Cloudy with Mist and Fog 22 -5.7 19 -7.4 88 88 N 10 17 30.53 1034 5 8.0467 0 0
10:55 am 10:55 Cloudy 22 -5.4 18 -7.6 85 85 N 14 22 30.54 1034 10 16.0934 0 0
11:15 am 11:15 Cloudy 22 -5.4 18 -7.8 83 83 N 10 17 30.53 1034 10 16.0934 0 0
11:35 am 11:35 Cloudy 23 -5 18 -7.7 82 82 N 13 20 30.53 1034 10 16.0934 0 0
11:55 am 11:55 Partly Cloudy 23 -5 18 -8 80 80 N 9 15 30.53 1034 10 16.0934 0 0
12:15 pm 12:15 Mostly Cloudy 23 -4.8 18 -7.9 79 79 N 10 17 30.52 1034 10 16.0934 0 0
12:35 pm 12:35 Cloudy 24 -4.4 18 -7.6 79 79 N 8 13 30.52 1034 10 16.0934 0 0
12:55 pm 12:55 Cloudy 25 -4.1 18 -8 75 75 N 9 15 30.51 1033 10 16.0934 0 0
1:15 pm 13:15 Cloudy 25 -3.9 18 -7.8 75 75 NNW 8 13 30.49 1033 10 16.0934 0 0
1:35 pm 13:35 Mostly Cloudy 26 -3.6 17 -8.1 71 71 N 10 17 30.48 1032 10 16.0934 0 0
1:55 pm 13:55 Mostly Cloudy 26 -3.3 18 -8 70 70 NNW 12 19 30.47 1032 10 16.0934 0 0
2:15 pm 14:15 Mostly Cloudy 27 -3 18 -7.9 69 69 NNW 10 17 30.45 1031 10 16.0934 0 0
2:35 pm 14:35 Cloudy 27 -3 18 -7.9 69 69 NNW 9 15 30.44 1031 10 16.0934 0 0
2:55 pm 14:55 Cloudy 27 -2.9 17 -8.1 68 68 NNW 9 15 30.42 1030 10 16.0934 0 0
3:15 pm 15:15 Mostly Cloudy 27 -2.7 17 -8.1 67 67 NNW 12 19 30.42 1030 10 16.0934 0 0
3:35 pm 15:35 Cloudy 27 -2.8 18 -7.8 69 69 NW 12 19 30.41 1030 10 16.0934 0 0
3:55 pm 15:55 Mostly Cloudy 27 -2.6 18 -7.6 69 69 WNW 12 19 30.41 1030 10 16.0934 0 0
4:15 pm 16:15 Mostly Cloudy 27 -2.6 19 -7.4 70 70 NW 8 13 30.4 1029 10 16.0934 0 0
4:35 pm 16:35 Mostly Cloudy 28 -2.3 19 -7.1 70 70 WNW 9 15 30.4 1029 10 16.0934 0 0
4:55 pm 16:55 Partly Cloudy 28 -2.2 19 -7.5 67 67 WNW 12 19 30.39 1029 10 16.0934 0 0
5:15 pm 17:15 Sunny 28 -2.5 18 -7.7 68 68 NW 12 19 30.39 1029 10 16.0934 0 0
5:35 pm 17:35 Partly Cloudy 27 -2.6 18 -7.7 68 68 WNW 9 15 30.39 1029 10 16.0934 0 0
5:55 pm 17:55 Sunny 27 -2.6 18 -7.6 69 69 WNW 9 15 30.39 1029 10 16.0934 0 0
6:15 pm 18:15 Partly Cloudy 27 -2.8 18 -7.7 69 69 W 7 11 30.39 1029 10 16.0934 0 0
6:35 pm 18:35 Cloudy 27 -3 19 -7.3 73 73 W 7 11 30.39 1029 10 16.0934 0 0
6:55 pm 18:55 Partly Cloudy 26 -3.6 18 -7.6 74 74 W 8 13 30.4 1029 10 16.0934 0 0
7:15 pm 19:15 Clear 24 -4.3 17 -8.1 75 75 W 7 11 30.41 1030 10 16.0934 0 0
7:35 pm 19:35 Clear 24 -4.7 17 -8.6 74 74 W 8 13 30.41 1030 10 16.0934 0 0
7:55 pm 19:55 Partly Cloudy 22 -5.5 16 -8.8 78 78 W 8 13 30.42 1030 10 16.0934 0 0
8:15 pm 20:15 Partly Cloudy 22 -5.7 16 -8.9 78 78 W 7 11 30.42 1030 10 16.0934 0 0
8:35 pm 20:35 Clear 20 -6.4 15 -9.6 78 78 W 7 11 30.43 1030 10 16.0934 0 0
8:55 pm 20:55 Clear 20 -6.7 15 -9.6 80 80 W 7 11 30.43 1031 10 16.0934 0 0
9:15 pm 21:15 Partly Cloudy 18 -7.6 13 -10.5 80 80 W 7 11 30.44 1031 10 16.0934 0 0
9:35 pm 21:35 Clear 19 -7.3 13 -10.6 78 78 W 9 15 30.44 1031 10 16.0934 0 0
9:55 pm 21:55 Clear 19 -7.5 12 -11 76 76 W 9 15 30.44 1031 10 16.0934 0 0
10:15 pm 22:15 Clear 18 -8 11 -11.7 75 75 W 8 13 30.45 1031 10 16.0934 0 0
10:35 pm 22:35 Clear 18 -7.7 11 -11.7 73 73 W 6 9 30.44 1031 10 16.0934 0 0
10:55 pm 22:55 Clear 17 -8.2 11 -11.8 76 76 W 6 9 30.45 1031 10 16.0934 0 0
11:15 pm 23:15 Clear 17 -8.5 11 -11.9 77 77 W 6 9 30.45 1031 10 16.0934 0 0
11:35 pm 23:35 Clear 16 -8.7 11 -11.7 79 79 W 7 11 30.45 1031 10 16.0934 0 0
11:55 pm 23:55 Clear 15 -9.3 10 -12.1 80 80 W 7 11 30.45 1031 10 16.0934 0 0

Powered by AerisWeather